Regional Weather Roundup
Issued by NWS Little Rock, AR

Home | Current Version | Previous Version | Graphics & Text | Print | Product List | Glossary On
Versions: 1 2 3 4 5 6 7 8 9 10 11 12 13 14 15 16 17 18 19 20 21 22 23 24 25 26 27 28 29 30 31 32 33 34 35 36 37 38 39 40 41 42 43 44 45 46 47 48 49
000
ASUS44 KLZK 290205
RWRLZK

WEATHER ROUNDUP FOR ARKANSAS
NATIONAL WEATHER SERVICE LITTLE ROCK AR
900 PM CDT THU MAY 28 2015

NOTE: "FAIR" INDICATES FEW OR NO CLOUDS BELOW 12,000 FEET WITH NO
SIGNIFICANT WEATHER AND/OR OBSTRUCTIONS TO VISIBILITY.

ARZ001-003-010-029-290300-
NORTHWEST ARKANSAS

CITY           SKY/WX    TMP DP  RH WIND       PRES   REMARKS
FAYETTEVILLE   PTCLDY    68  63  84 SE6       30.00R
FORT SMITH     MOCLDY    71  66  84 E6        29.97S
HARRISON       PTCLDY    67  62  84 SE9       30.03R
BENTONVILLE    PTCLDY    70  63  78 S3        30.00R
ROGERS         PTCLDY    71  64  78 SE6       30.01R
SILOAM SPGS    PTCLDY    70  61  73 S3        30.00R
HIGHFILL       PTCLDY    69  65  86 S7        29.99R
SPRINGDALE     CLEAR     70  64  83 S6        30.02R
$$

ARZ004-005-016-290300-
NORTH CENTRAL ARKANSAS

CITY           SKY/WX    TMP DP  RH WIND       PRES   REMARKS
BATESVILLE     CLOUDY    70  66  88 CALM      30.04R
FLIPPIN        MOCLDY    70  64  83 E3        30.01R
MTN HOME       CLOUDY    68  64  87 S5        30.02R
$$

ARZ040-041-290300-
WEST CENTRAL ARKANSAS

CITY           SKY/WX    TMP DP  RH WIND       PRES   REMARKS
MENA           MOCLDY    70  68  94 E3        30.02S
MOUNT IDA      CLOUDY    68  66  93 CALM      30.01S
$$

ARZ009-017-025-026-028-290300-
NORTHEAST ARKANSAS

CITY           SKY/WX    TMP DP  RH WIND       PRES   REMARKS
CORNING        FAIR      75  70  83 SE6       30.04S
JONESBORO      CLOUDY    74  69  85 SE5       30.04R
NEWPORT        MOCLDY    74  70  87 SE7       30.04S
WALNUT RIDGE   CLOUDY    75  68  78 SE7       30.03S
BLYTHEVILLE    CLEAR     74  70  87 SE7       30.06S
$$

ARZ022-023-033-042-044-290300-
CENTRAL ARKANSAS

CITY           SKY/WX    TMP DP  RH WIND       PRES   REMARKS
LITTLE ROCK    MOCLDY    70  66  87 S3        30.03S
N LITTLE ROCK  MOCLDY    70  68  92 S5        30.03S
JACKSONVILLE   MOCLDY    69  68  96 E1        30.02F
SEARCY         MOCLDY    68  67  96 CALM      30.05R
HOT SPRINGS    CLOUDY    68  66  93 E6        30.02F
RUSSELLVILLE   MOCLDY    69  67  93 CALM      30.02R
CLINTON        FAIR      68  68 100 CALM      30.05S FOG
$$

ARZ036-290300-
EAST ARKANSAS

CITY           SKY/WX    TMP DP  RH WIND       PRES   REMARKS
WEST MEMPHIS   PTCLDY    73  69  87 S7        30.04S
$$

ARZ050-053-066-070-073-290300-
SOUTHWEST ARKANSAS

CITY           SKY/WX    TMP DP  RH WIND       PRES   REMARKS
ARKADELPHIA    FAIR      70  70 100 CALM      30.02F
CAMDEN         MOCLDY    68  64  88 CALM      30.03F
TEXARKANA      MOCLDY    72  68  87 SE5       30.00F
EL DORADO      CLOUDY    69  67  93 SE3       30.03F
DE QUEEN       MOCLDY    71  67  87 E18       29.97S
$$

ARZ056-057-069-290300-
SOUTHEAST ARKANSAS

CITY           SKY/WX    TMP DP  RH WIND       PRES   REMARKS
PINE BLUFF     MOCLDY    70  67  90 E3        30.04S
STUTTGART      MOCLDY    72  66  83 MISG      30.05R
MONTICELLO     MOCLDY    71  70  96 E3        30.05S

$$




USA.gov is the U.S. government's official web portal to all federal, state and local government web resources and services.